Location: Caltech
(34.1382°N, 118.1253°W)
Time: 02:07:02
(UTC-07:00)

Aureole 2 Rocket - Visible Passes

Search period start: 31 October 2014 00:00
Search period end: 09 November 2014 23:00
Orbit: 349 x 743 km, 73.9° (Epoch: 30 October)

Date Brightness Start Highest point End Pass type
(mag) Time Alt. Az. Time Alt. Az. Time Alt. Az.
31 Oct 5.2 05:01:41 12° NNE 05:04:07 21° ENE 05:07:15 10° ESE visible
31 Oct 4.1 06:38:23 10° NW 06:41:16 21° WSW 06:44:24 10° SSW visible
31 Oct 2.4 18:54:34 10° S 18:57:23 40° ESE 18:59:08 18° NE visible
01 Nov 4.9 04:57:02 21° NE 04:58:15 25° ENE 05:01:43 10° SE visible
01 Nov 4.3 06:32:44 10° WNW 06:35:22 18° WSW 06:38:13 10° SW visible
01 Nov 2.0 18:48:32 10° S 18:51:25 52° ESE 18:54:12 10° NNE visible
02 Nov 4.6 03:52:26 30° ENE 03:52:26 30° ENE 03:56:03 10° SE visible
02 Nov 4.5 05:28:07 13° W 05:29:24 15° W 05:31:52 10° SW visible
02 Nov 1.8 17:42:30 10° S 17:45:24 69° ESE 17:48:13 10° NNE visible
03 Nov 4.8 03:47:50 27° ESE 03:47:50 27° ESE 03:50:18 10° SE visible
03 Nov 4.7 05:23:31 13° WSW 05:23:31 13° WSW 05:25:21 10° SW visible
03 Nov 1.9 17:36:26 10° SSW 17:39:20 89° WNW 17:42:10 10° NNE visible
04 Nov 5.4 03:43:12 18° SE 03:43:12 18° SE 03:44:26 10° SE visible
04 Nov 2.3 17:30:20 10° SSW 17:33:13 68° WNW 17:36:01 10° NNE visible
05 Nov 2.8 17:24:13 10° SSW 17:27:02 51° WNW 17:29:48 10° N visible
06 Nov 3.4 17:18:05 10° SW 17:20:48 39° WNW 17:23:29 10° N visible
